DW9686 Weather Reports


time (UTC)temp
F
wind
direction
speed
knots
gust
knots
rain 1hr
in
rain 24hr
in
rain mn
in
humidity
%
barometer
mb
20260504044532 73 0 0.0 0.0 0.00 0.00 0.00 36 1007.7
20260504043031 73 0 0.0 0.0 0.00 0.00 0.00 37 1007.6
20260504041535 72 0 0.0 0.0 0.00 0.00 0.00 39 1007.6
20260504040033 72 0 0.0 0.0 0.00 0.00 0.00 36 1007.5
20260504034542 73 0 0.0 0.0 0.00 0.00 0.00 37 1007.5
20260504033033 74 0 0.0 0.0 0.00 0.00 0.00 38 1007.4
20260504031537 77 0 0.0 0.0 0.00 0.00 0.00 36 1007.5
20260504030039 79 0 0.0 0.0 0.00 0.00 0.00 37 1007.5
20260504024535 82 0 0.0 0.0 0.00 0.00 0.00 37 1007.5
20260504023030 82 0 0.0 0.0 0.00 0.00 0.00 33 1007.6
20260504021530 82 0 0.0 1.7 0.00 0.00 0.00 33 1007.8
20260504020030 83 349 0.9 3.5 0.00 0.00 0.00 31 1007.8
20260504014531 84 349 0.9 3.5 0.00 0.00 0.00 29 1008.0
20260504013032 84 349 1.7 5.2 0.00 0.00 0.00 27 1008.0
20260504011532 84 349 1.7 7.0 0.00 0.00 0.00 27 1008.2
20260504010029 85 344 1.7 5.2 0.00 0.00 0.00 27 1008.4
20260504004530 85 344 1.7 4.3 0.00 0.00 0.00 26 1008.6
20260504003036 85 344 2.6 7.0 0.00 0.00 0.00 26 1008.8
20260504001530 85 344 2.6 5.2 0.00 0.00 0.00 26 1009.0
20260504000030 85 349 2.6 7.0 0.00 0.00 0.00 25 1009.0
20260503234533 85 342 2.6 7.0 0.00 0.00 0.00 26 1009.3
20260503233033 85 342 4.3 8.7 0.00 0.00 0.00 25 1009.6
20260503231544 85 349 2.6 7.0 0.00 0.00 0.00 26 1009.8
20260503230033 85 347 3.5 9.6 0.00 0.00 0.00 26 1010.0
20260503224532 85 319 5.2 9.6 0.00 0.00 0.00 27 1010.1
20260503223030 85 346 3.5 7.8 0.00 0.00 0.00 28 1010.3
20260503221534 85 336 3.5 7.8 0.00 0.00 0.00 29 1010.4
20260503220037 84 334 2.6 8.7 0.00 0.00 0.00 29 1010.7
20260503214540 84 336 1.7 7.8 0.00 0.00 0.00 28 1010.9
20260503213049 84 336 4.3 7.0 0.00 0.00 0.00 30 1011.0
20260503211533 84 334 4.3 8.7 0.00 0.00 0.00 32 1011.2
20260503210030 83 23 2.6 9.6 0.00 0.00 0.00 30 1011.4
20260503204549 83 352 3.5 7.8 0.00 0.00 0.00 32 1011.6
20260503203033 83 348 4.3 7.8 0.00 0.00 0.00 34 1011.7
20260503201530 82 352 3.5 7.8 0.00 0.00 0.00 36 1011.9
20260503200031 81 352 3.5 7.8 0.00 0.00 0.00 36 1011.9
20260503194532 80 324 3.5 7.0 0.00 0.00 0.00 38 1012.2
20260503193032 80 336 3.5 7.0 0.00 0.00 0.00 39 1012.5
20260503191530 79 333 1.7 7.0 0.00 0.00 0.00 39 1012.6
20260503190029 78 352 3.5 7.0 0.00 0.00 0.00 41 1012.9
20260503184534 77 325 1.7 5.2 0.00 0.00 0.00 44 1013.1
20260503183040 76 325 1.7 7.8 0.00 0.00 0.00 42 1013.2
20260503181532 75 311 1.7 7.8 0.00 0.00 0.00 46 1013.3
20260503180034 74 345 3.5 10.4 0.00 0.00 0.00 45 1013.4
20260503174541 74 335 3.5 7.8 0.00 0.00 0.00 46 1013.4
20260503173032 73 349 2.6 9.6 0.00 0.00 0.00 48 1013.6
20260503171535 72 350 3.5 7.8 0.00 0.00 0.00 49 1013.7
20260503081552 62 5 2.6 4.3 0.00 0.00 0.00 59 1012.7